When you browse on this site, cookies collect data to enhance your experience and personalize the content and advertising you see.
Visit our Privacy Policy to learn more. By continuing to use the site, you agree to this use of cookies and data.
  • In Hungary
  • List of Countries
  • For 7 days
  • Water Temperature
  • Satellite Maps
  • Weather Map
  • News
  • Weather Widgets
  • user-avatar
    Login

    Hourly Weather Andreevskiy

    Today, 24 January, Thursday

    Time Temperature Precipitation Wind Pressure Humidity
    00:00 -23°C° 0 mm 0 mps 753 mmHg 99%
    01:00 -23°C° 0 mm 0 mps 753 mmHg 99%
    02:00 -23°C° 0 mm 0 mps 754 mmHg 99%
    03:00 -23°C° 0 mm 0 mps 754 mmHg 99%
    04:00 -24°C° 0 mm 0 mps 754 mmHg 99%
    05:00 -23°C° 0 mm 0 mps 755 mmHg 98%
    06:00 -23°C° 0 mm 1 mps 755 mmHg 98%
    07:00 -23°C° 0 mm 1 mps 756 mmHg 98%
    08:00 -22°C° 0 mm 1 mps 756 mmHg 97%
    09:00 -22°C° 0 mm 1 mps 756 mmHg 96%
    10:00 -21°C° 0 mm 1 mps 756 mmHg 95%
    11:00 -19°C° 0 mm 1 mps 756 mmHg 93%
    12:00 -18°C° 0 mm 1 mps 757 mmHg 91%
    13:00 -16°C° 0 mm 1 mps 757 mmHg 89%
    14:00 -17°C° 0 mm 1 mps 756 mmHg 91%
    15:00 -17°C° 0 mm 1 mps 756 mmHg 92%
    16:00 -17°C° 0 mm 1 mps 756 mmHg 94%
    17:00 -19°C° 0 mm 2 mps 756 mmHg 93%
    18:00 -19°C° 0 mm 2 mps 756 mmHg 92%
    19:00 -19°C° 0 mm 2 mps 755 mmHg 92%
    20:00 -18°C° 0 mm 2 mps 755 mmHg 89%
    21:00 -18°C° 0 mm 3 mps 754 mmHg 87%
    22:00 -17°C° 0 mm 3 mps 754 mmHg 85%
    23:00 -17°C° 0.3 mm 4 mps 753 mmHg 87%

    Tomorrow, 25 January, Friday

    Time Temperature Precipitation Wind Pressure Humidity
    00:00 -17°C° 0.3 mm 5 mps 752 mmHg 89%
    01:00 -16°C° 0.3 mm 6 mps 751 mmHg 91%
    02:00 -15°C° 0.8 mm 7 mps 751 mmHg 91%
    03:00 -15°C° 0.8 mm 7 mps 750 mmHg 91%
    04:00 -16°C° 0.8 mm 8 mps 749 mmHg 91%
    05:00 -16°C° 1.1 mm 8 mps 748 mmHg 92%
    06:00 -16°C° 1.1 mm 8 mps 747 mmHg 93%
    07:00 -16°C° 1.1 mm 8 mps 746 mmHg 93%
    08:00 -16°C° 1 mm 8 mps 746 mmHg 93%
    09:00 -15°C° 1 mm 7 mps 745 mmHg 93%
    10:00 -15°C° 1 mm 7 mps 745 mmHg 93%
    11:00 -15°C° 0.5 mm 6 mps 744 mmHg 93%
    12:00 -14°C° 0.5 mm 6 mps 744 mmHg 93%
    13:00 -13°C° 0.5 mm 5 mps 743 mmHg 93%
    14:00 -12°C° 0.4 mm 5 mps 743 mmHg 93%
    15:00 -10°C° 0.4 mm 4 mps 743 mmHg 93%
    16:00 -9°C° 0.4 mm 4 mps 743 mmHg 93%
    17:00 -11°C° 0 mm 4 mps 744 mmHg 93%
    18:00 -13°C° 0 mm 3 mps 745 mmHg 93%
    19:00 -15°C° 0 mm 3 mps 746 mmHg 93%
    20:00 -17°C° 0 mm 3 mps 747 mmHg 95%
    21:00 -17°C° 0 mm 2 mps 748 mmHg 96%
    22:00 -19°C° 0 mm 2 mps 749 mmHg 97%
    23:00 -20°C° 0 mm 2 mps 749 mmHg 98%

    Day after tomorrow, 26 January, Saturday

    Time Temperature Precipitation Wind Pressure Humidity
    00:00 -21°C° 0 mm 2 mps 750 mmHg 98%
    01:00 -21°C° 0 mm 1 mps 751 mmHg 99%
    02:00 -22°C° 0 mm 1 mps 751 mmHg 99%
    03:00 -22°C° 0 mm 1 mps 752 mmHg 99%
    04:00 -23°C° 0 mm 1 mps 752 mmHg 99%
    05:00 -23°C° 0 mm 1 mps 753 mmHg 99%
    06:00 -24°C° 0 mm 1 mps 753 mmHg 99%
    07:00 -24°C° 0 mm 1 mps 754 mmHg 99%
    08:00 -23°C° 0 mm 1 mps 754 mmHg 97%
    09:00 -22°C° 0 mm 0 mps 755 mmHg 96%
    10:00 -20°C° 0 mm 0 mps 755 mmHg 94%
    11:00 -19°C° 0 mm 1 mps 755 mmHg 92%
    12:00 -17°C° 0 mm 1 mps 755 mmHg 89%
    13:00 -16°C° 0 mm 1 mps 755 mmHg 87%
    14:00 -16°C° 0 mm 1 mps 756 mmHg 89%
    15:00 -16°C° 0 mm 1 mps 756 mmHg 90%
    16:00 -17°C° 0 mm 1 mps 756 mmHg 92%
    17:00 -18°C° 0 mm 1 mps 756 mmHg 92%
    18:00 -18°C° 0 mm 1 mps 756 mmHg 92%
    19:00 -19°C° 0 mm 1 mps 756 mmHg 91%
    20:00 -19°C° 0 mm 1 mps 756 mmHg 89%
    21:00 -19°C° 0 mm 1 mps 756 mmHg 87%
    22:00 -19°C° 0 mm 1 mps 756 mmHg 85%
    23:00 -19°C° 0 mm 1 mps 756 mmHg 83%

    27 January, Sunday

    Time Temperature Precipitation Wind Pressure Humidity
    00:00 -19°C° 0 mm 1 mps 756 mmHg 80%
    01:00 -19°C° 0 mm 1 mps 756 mmHg 78%
    02:00 -21°C° 0 mm 2 mps 756 mmHg 78%
    03:00 -21°C° 0 mm 2 mps 756 mmHg 77%
    04:00 -21°C° 0 mm 2 mps 756 mmHg 77%
    05:00 -21°C° 0 mm 2 mps 756 mmHg 77%
    06:00 -21°C° 0 mm 2 mps 756 mmHg 78%
    07:00 -21°C° 0 mm 2 mps 756 mmHg 78%
    08:00 -22°C° 0 mm 3 mps 756 mmHg 76%
    09:00 -19°C° 0 mm 3 mps 756 mmHg 74%
    10:00 -19°C° 0 mm 4 mps 756 mmHg 73%
    11:00 -17°C° 0 mm 4 mps 756 mmHg 72%
    12:00 -17°C° 0 mm 5 mps 755 mmHg 71%
    13:00 -14°C° 0 mm 5 mps 755 mmHg 70%
    14:00 -14°C° 0 mm 5 mps 755 mmHg 70%
    15:00 -15°C° 0 mm 5 mps 754 mmHg 70%
    16:00 -15°C° 0 mm 5 mps 754 mmHg 70%
    17:00 -17°C° 0 mm 5 mps 754 mmHg 69%
    18:00 -18°C° 0 mm 5 mps 754 mmHg 68%
    19:00 -19°C° 0 mm 5 mps 754 mmHg 68%
    20:00 -19°C° 0 mm 5 mps 754 mmHg 67%
    21:00 -20°C° 0 mm 6 mps 753 mmHg 67%
    22:00 -20°C° 0 mm 6 mps 753 mmHg 66%
    23:00 -20°C° 0 mm 6 mps 753 mmHg 66%

    28 January, Monday

    Time Temperature Precipitation Wind Pressure Humidity
    00:00 -20°C° 0 mm 6 mps 753 mmHg 65%
    01:00 -20°C° 0 mm 6 mps 753 mmHg 64%
    02:00 -20°C° 0 mm 6 mps 752 mmHg 64%
    03:00 -20°C° 0 mm 6 mps 752 mmHg 64%
    04:00 -20°C° 0 mm 6 mps 751 mmHg 64%
    05:00 -18°C° 0 mm 6 mps 751 mmHg 63%
    06:00 -18°C° 0 mm 6 mps 750 mmHg 63%
    07:00 -18°C° 0 mm 6 mps 750 mmHg 63%
    08:00 -17°C° 0 mm 6 mps 749 mmHg 65%
    09:00 -18°C° 0 mm 7 mps 749 mmHg 67%
    10:00 -17°C° 0 mm 7 mps 749 mmHg 69%
    11:00 -15°C° 0 mm 7 mps 748 mmHg 71%
    12:00 -14°C° 0 mm 7 mps 747 mmHg 72%
    13:00 -13°C° 0 mm 7 mps 747 mmHg 74%
    14:00 -13°C° 0 mm 7 mps 746 mmHg 75%
    15:00 -12°C° 0 mm 6 mps 746 mmHg 76%
    16:00 -12°C° 0 mm 6 mps 745 mmHg 77%
    17:00 -14°C° 0.1 mm 6 mps 745 mmHg 80%
    18:00 -14°C° 0.1 mm 6 mps 745 mmHg 83%
    19:00 -14°C° 0.1 mm 6 mps 745 mmHg 85%
    20:00 -15°C° 0.2 mm 6 mps 744 mmHg 87%
    21:00 -15°C° 0.2 mm 6 mps 744 mmHg 88%
    22:00 -16°C° 0.2 mm 6 mps 744 mmHg 90%
    23:00 -15°C° 0.3 mm 6 mps 743 mmHg 90%

    29 January, Tuesday

    Time Temperature Precipitation Wind Pressure Humidity
    00:00 -14°C° 0.3 mm 6 mps 743 mmHg 89%
    01:00 -12°C° 0.3 mm 6 mps 743 mmHg 89%
    02:00 -13°C° 0.3 mm 5 mps 742 mmHg 90%
    03:00 -14°C° 0.3 mm 4 mps 742 mmHg 91%
    04:00 -15°C° 0.3 mm 4 mps 742 mmHg 92%
    05:00 -14°C° 0.1 mm 3 mps 742 mmHg 92%
    06:00 -14°C° 0.1 mm 3 mps 742 mmHg 91%
    07:00 -14°C° 0.1 mm 3 mps 741 mmHg 91%
    08:00 -14°C° 0.1 mm 3 mps 742 mmHg 91%
    09:00 -14°C° 0.1 mm 3 mps 742 mmHg 91%
    10:00 -14°C° 0.1 mm 3 mps 742 mmHg 91%
    11:00 -12°C° 0.1 mm 2 mps 742 mmHg 90%
    12:00 -10°C° 0.1 mm 2 mps 742 mmHg 90%
    13:00 -9°C° 0.1 mm 2 mps 742 mmHg 90%
    14:00 -9°C° 0.1 mm 2 mps 742 mmHg 91%
    15:00 -7°C° 0.1 mm 1 mps 742 mmHg 92%
    16:00 -7°C° 0.1 mm 1 mps 742 mmHg 92%
    17:00 -8°C° 0.1 mm 1 mps 743 mmHg 93%
    18:00 -8°C° 0.1 mm 1 mps 743 mmHg 94%
    19:00 -9°C° 0.1 mm 1 mps 744 mmHg 94%
    20:00 -9°C° 0 mm 1 mps 744 mmHg 95%
    21:00 -9°C° 0 mm 1 mps 744 mmHg 96%
    22:00 -10°C° 0 mm 1 mps 744 mmHg 96%
    23:00 -10°C° 0 mm 1 mps 744 mmHg 96%
    Show more